When you browse on this site, cookies collect data to enhance your experience and personalize the content and advertising you see.
Visit our Privacy Policy to learn more. By continuing to use the site, you agree to this use of cookies and data.
  • In Hungary
  • List of Countries
  • For 7 days
  • Water Temperature
  • Weather Map
  • News
  • Weather Widgets
  • user-avatar
    Login

    Hourly Weather Krasnyy Holm

    Today, 19 January, Sunday

    Time Temperature Precipitation Wind Pressure Humidity
    00:00 -5°C° 0 mm 4 mps 755 mmHg 95%
    01:00 -5°C° 0 mm 4 mps 755 mmHg 94%
    02:00 -5°C° 0 mm 4 mps 755 mmHg 94%
    03:00 -5°C° 0 mm 4 mps 756 mmHg 97%
    04:00 -5°C° 0 mm 4 mps 755 mmHg 96%
    05:00 -5°C° 0 mm 4 mps 755 mmHg 95%
    06:00 -7°C° 0 mm 4 mps 755 mmHg 94%
    07:00 -7°C° 0 mm 4 mps 755 mmHg 94%
    08:00 -6°C° 0 mm 3 mps 755 mmHg 94%
    09:00 -6°C° 0 mm 2 mps 756 mmHg 96%
    10:00 -6°C° 0 mm 3 mps 756 mmHg 95%
    11:00 -5°C° 0 mm 3 mps 756 mmHg 94%
    12:00 -4°C° 0 mm 3 mps 756 mmHg 93%
    13:00 -4°C° 0 mm 3 mps 756 mmHg 93%
    14:00 -4°C° 0 mm 3 mps 756 mmHg 92%
    15:00 -2°C° 0 mm 2 mps 757 mmHg 91%
    16:00 -3°C° 0 mm 2 mps 757 mmHg 92%
    17:00 -3°C° 0 mm 2 mps 757 mmHg 92%
    18:00 -3°C° 0 mm 2 mps 757 mmHg 93%
    19:00 -3°C° 0 mm 2 mps 757 mmHg 94%
    20:00 -5°C° 0 mm 3 mps 757 mmHg 94%
    21:00 -5°C° 0 mm 3 mps 757 mmHg 95%
    22:00 -5°C° 0 mm 3 mps 757 mmHg 95%
    23:00 -4°C° 0 mm 3 mps 757 mmHg 94%

    Tomorrow, 20 January, Monday

    Time Temperature Precipitation Wind Pressure Humidity
    00:00 -3°C° 0 mm 4 mps 757 mmHg 94%
    01:00 -3°C° 0 mm 4 mps 757 mmHg 93%
    02:00 -3°C° 0 mm 4 mps 757 mmHg 93%
    03:00 -3°C° 0 mm 4 mps 757 mmHg 93%
    04:00 -3°C° 0 mm 4 mps 757 mmHg 93%
    05:00 -3°C° 0 mm 4 mps 756 mmHg 92%
    06:00 -3°C° 0 mm 4 mps 756 mmHg 92%
    07:00 -3°C° 0 mm 4 mps 756 mmHg 92%
    08:00 -3°C° 0 mm 4 mps 756 mmHg 92%
    09:00 -3°C° 0 mm 4 mps 756 mmHg 92%
    10:00 -2°C° 0 mm 4 mps 756 mmHg 92%
    11:00 -2°C° 0 mm 5 mps 755 mmHg 91%
    12:00 -2°C° 0 mm 5 mps 755 mmHg 91%
    13:00 -2°C° 0 mm 5 mps 755 mmHg 91%
    14:00 -2°C° 0 mm 5 mps 755 mmHg 90%
    15:00 -1°C° 0 mm 5 mps 755 mmHg 90%
    16:00 -2°C° 0 mm 5 mps 755 mmHg 91%
    17:00 -2°C° 0 mm 5 mps 754 mmHg 92%
    18:00 -2°C° 0 mm 5 mps 754 mmHg 93%
    19:00 -2°C° 0.1 mm 5 mps 754 mmHg 93%
    20:00 -2°C° 0.1 mm 5 mps 754 mmHg 94%
    21:00 -2°C° 0.1 mm 5 mps 754 mmHg 94%
    22:00 -2°C° 0 mm 5 mps 753 mmHg 95%
    23:00 -2°C° 0 mm 5 mps 753 mmHg 95%

    Day after tomorrow, 21 January, Tuesday

    Time Temperature Precipitation Wind Pressure Humidity
    00:00 -2°C° 0 mm 5 mps 752 mmHg 96%
    01:00 -2°C° 0.1 mm 5 mps 752 mmHg 96%
    02:00 -3°C° 0.1 mm 6 mps 752 mmHg 96%
    03:00 -3°C° 0.1 mm 6 mps 751 mmHg 96%
    04:00 -3°C° 0 mm 6 mps 751 mmHg 93%
    05:00 -3°C° 0 mm 6 mps 750 mmHg 91%
    06:00 -4°C° 0 mm 6 mps 749 mmHg 89%
    07:00 -4°C° 0 mm 6 mps 749 mmHg 89%
    08:00 -4°C° 0 mm 6 mps 748 mmHg 89%
    09:00 -4°C° 0 mm 6 mps 748 mmHg 90%
    10:00 -4°C° 0.1 mm 6 mps 747 mmHg 90%
    11:00 -4°C° 0.1 mm 7 mps 746 mmHg 91%
    12:00 -4°C° 0.1 mm 7 mps 745 mmHg 92%
    13:00 -3°C° 0.4 mm 7 mps 745 mmHg 93%
    14:00 -3°C° 0.4 mm 7 mps 745 mmHg 95%
    15:00 -3°C° 0.4 mm 7 mps 744 mmHg 96%
    16:00 -2°C° 0 mm 7 mps 744 mmHg 96%
    17:00 -2°C° 0 mm 6 mps 743 mmHg 96%
    18:00 -1°C° 0 mm 6 mps 742 mmHg 95%
    19:00 -1°C° 0 mm 6 mps 742 mmHg 96%
    20:00 -1°C° 0 mm 6 mps 741 mmHg 96%
    21:00 -1°C° 0 mm 6 mps 741 mmHg 96%
    22:00 -1°C° 0.4 mm 6 mps 740 mmHg 97%
    23:00 -1°C° 0.4 mm 6 mps 739 mmHg 97%

    22 January, Wednesday

    Time Temperature Precipitation Wind Pressure Humidity
    00:00 -1°C° 0.4 mm 6 mps 738 mmHg 97%
    01:00 -1°C° 0.5 mm 6 mps 737 mmHg 97%
    02:00 0°C° 0.5 mm 7 mps 737 mmHg 96%
    03:00 0°C° 0.5 mm 8 mps 736 mmHg 96%
    04:00 0°C° 0.2 mm 8 mps 736 mmHg 96%
    05:00 0°C° 0.2 mm 8 mps 736 mmHg 96%
    06:00 0°C° 0.2 mm 8 mps 736 mmHg 95%
    07:00 -1°C° 0.1 mm 7 mps 736 mmHg 91%
    08:00 -2°C° 0.1 mm 6 mps 737 mmHg 86%
    09:00 -3°C° 0.1 mm 6 mps 737 mmHg 81%
    10:00 -3°C° 0 mm 6 mps 737 mmHg 80%
    11:00 -3°C° 0 mm 6 mps 737 mmHg 79%
    12:00 -3°C° 0 mm 6 mps 737 mmHg 78%
    13:00 -3°C° 0.1 mm 6 mps 737 mmHg 78%
    14:00 -2°C° 0.1 mm 5 mps 736 mmHg 79%
    15:00 -2°C° 0.1 mm 5 mps 736 mmHg 80%
    16:00 -2°C° 0.1 mm 4 mps 736 mmHg 82%
    17:00 -3°C° 0.1 mm 4 mps 736 mmHg 84%
    18:00 -2°C° 0.1 mm 3 mps 736 mmHg 86%
    19:00 -2°C° 0 mm 3 mps 735 mmHg 87%
    20:00 -3°C° 0 mm 4 mps 735 mmHg 88%
    21:00 -4°C° 0 mm 4 mps 735 mmHg 88%
    22:00 -4°C° 0 mm 4 mps 735 mmHg 90%
    23:00 -4°C° 0 mm 4 mps 735 mmHg 91%

    23 January, Thursday

    Time Temperature Precipitation Wind Pressure Humidity
    00:00 -4°C° 0 mm 3 mps 735 mmHg 93%
    01:00 -4°C° 0 mm 4 mps 735 mmHg 92%
    02:00 -4°C° 0 mm 4 mps 736 mmHg 91%
    03:00 -5°C° 0 mm 4 mps 736 mmHg 91%
    04:00 -5°C° 0 mm 4 mps 736 mmHg 90%
    05:00 -5°C° 0 mm 4 mps 736 mmHg 89%
    06:00 -6°C° 0 mm 5 mps 737 mmHg 88%
    07:00 -6°C° 0 mm 5 mps 737 mmHg 86%
    08:00 -6°C° 0 mm 5 mps 737 mmHg 85%
    09:00 -6°C° 0 mm 5 mps 738 mmHg 83%
    10:00 -6°C° 0.1 mm 5 mps 739 mmHg 80%
    11:00 -8°C° 0.1 mm 6 mps 739 mmHg 77%
    12:00 -8°C° 0.1 mm 7 mps 740 mmHg 74%
    13:00 -9°C° 0.1 mm 7 mps 740 mmHg 71%
    14:00 -9°C° 0.1 mm 7 mps 741 mmHg 69%
    15:00 -9°C° 0.1 mm 7 mps 742 mmHg 67%
    16:00 -9°C° 0 mm 6 mps 742 mmHg 68%
    17:00 -10°C° 0 mm 5 mps 743 mmHg 69%
    18:00 -8°C° 0 mm 3 mps 743 mmHg 70%
    19:00 -9°C° 0 mm 4 mps 744 mmHg 73%
    20:00 -9°C° 0 mm 4 mps 744 mmHg 76%
    21:00 -9°C° 0 mm 4 mps 745 mmHg 78%
    22:00 -9°C° 0 mm 4 mps 745 mmHg 78%
    23:00 -10°C° 0 mm 4 mps 745 mmHg 77%

    24 January, Friday

    Time Temperature Precipitation Wind Pressure Humidity
    00:00 -9°C° 0 mm 3 mps 746 mmHg 76%
    01:00 -9°C° 0 mm 3 mps 746 mmHg 76%
    02:00 -9°C° 0 mm 3 mps 746 mmHg 77%
    03:00 -10°C° 0 mm 3 mps 746 mmHg 77%
    04:00 -10°C° 0 mm 3 mps 746 mmHg 80%
    05:00 -10°C° 0 mm 3 mps 746 mmHg 82%
    06:00 -10°C° 0 mm 3 mps 746 mmHg 84%
    07:00 -10°C° 0 mm 4 mps 745 mmHg 85%
    08:00 -10°C° 0 mm 4 mps 745 mmHg 85%
    09:00 -10°C° 0 mm 4 mps 744 mmHg 86%
    10:00 -10°C° 0.1 mm 5 mps 744 mmHg 88%
    11:00 -9°C° 0.1 mm 6 mps 743 mmHg 90%
    12:00 -9°C° 0.1 mm 7 mps 742 mmHg 91%
    13:00 -8°C° 0.4 mm 7 mps 741 mmHg 92%
    14:00 -7°C° 0.4 mm 7 mps 740 mmHg 93%
    15:00 -7°C° 0.4 mm 7 mps 739 mmHg 93%
    16:00 -6°C° 0.3 mm 7 mps 738 mmHg 94%
    17:00 -5°C° 0.3 mm 6 mps 738 mmHg 94%
    18:00 -5°C° 0.3 mm 6 mps 737 mmHg 95%
    19:00 -4°C° 0.3 mm 5 mps 737 mmHg 96%
    20:00 -4°C° 0.3 mm 5 mps 737 mmHg 96%
    21:00 -2°C° 0.3 mm 4 mps 736 mmHg 97%
    22:00 -2°C° 0.1 mm 5 mps 737 mmHg 96%
    23:00 -2°C° 0.1 mm 5 mps 737 mmHg 95%
    Show more